LARETS

Last updated on Thu Nov 21 2024 00:03:28 GMT+0000 (Coordinated Universal Time)

1 27944U 03042F 24325.60222885 .00000214 00000+0 50613-4 0 9999 2 27944 98.3381 107.4109 0012929 32.1768 328.0220 14.63646893129450
UTC large
Height (km)
Speed (km/s)
/
Latitude / Longitude
Inclination (degrees)
Orbital Period (minutes)
Azimuth
Elevation
Range (km)
Doppler Factor

Next 0 passes for location: London (51.5072 / 0.1276)

Sorry there are no passes over London.